Weerstation Grootegast  Weerstation Grootegast


15 daagse weersverwachting Leipzig (DE)

  • Overzicht
  • Per uur
  • 15 dagen
  • Extra
  • Vergelijk
  • Kaarten
  • Dagkaart
  • Meer »
  • Info
  • Statistieken
  • Directe link
    Temp 6h Neerslag Wind  
 07:03     17:45    Daglengte: 10:42 Vandaag
07:00
0.6 mm
3
13:00
3.0 mm
7
19:00
4.7 mm
4
 07:01     17:46    Daglengte: 10:45 Morgen
01:00
 
6
07:00
1.4 mm
6
13:00
3.1 mm
6
19:00
1.6 mm
3
 06:58     17:48    Daglengte: 10:50 Vrijdag 28 Feb
01:00
14.3 mm
4
warningclass
07:00
13.8 mm
5
warningclass
13:00
19.0 mm
7
19:00
4.7 mm
4
 06:56     17:50    Daglengte: 10:54 Zaterdag 29 Feb
01:00
 
4
Locatie info
Region: Sachsen
Latitude: 51.3452°N
Longitude: 12.3859°E
116 masl
Postcode: 04103
Temp/Neerslag /Baro Onweer/DauwpuntSneeuw
    Temp Baro 1h Neerslag Dauwpunt Wind UV BewolkingSneeuw  
 07:03     17:45    Daglengte: 10:42 Vandaag
04:00
Voelt als: 0.6°
993.1 hPa
48%
1.8°
3
Windvlaag: 1.8 m/s
57%
05:00
Voelt als: 0.2°
992.7 hPa
65%
1.6°
3
Windvlaag: 1.9 m/s
77%
06:00
Voelt als: -0.0°
992.5 hPa
21%
1.4°
4
Windvlaag: 2.2 m/s
89%
07:00
Voelt als: -0.3°
992.4 hPa 0.6 mm
76%
1.7°
3
Windvlaag: 2.3 m/s
91%
08:00
Voelt als: -1.7°
992.6 hPa 1.0 mm
82%
1.4°
5
Windvlaag: 3.2 m/s
90%1 cm
09:00
Voelt als: -0.6°
993.1 hPa
81%
1.0°
6
Windvlaag: 2.8 m/s
67%1 cm
10:00
Voelt als: -0.1°
993.2 hPa
77%
-0.6°
7
Windvlaag: 3.3 m/s
41%1 cm
11:00
Voelt als: 0.5°
993.4 hPa 0.7 mm
82%
-1.2°
7
Windvlaag: 2.9 m/s
32%1 cm
12:00
Voelt als: 1.2°
993.2 hPa 0.5 mm
78%
-1.7°
7
Windvlaag: 2.5 m/s
61%1 cm
13:00
Voelt als: -0.2°
993.1 hPa 0.7 mm
82%
-0.6°
7
Windvlaag: 2.4 m/s
85%1 cm
14:00
Voelt als: -0.2°
993.3 hPa 0.9 mm
82%
0.9°
6
Windvlaag: 2.3 m/s
87%2 cm
15:00
Voelt als: -0.4°
994.1 hPa 1.2 mm
82%
0.6°
6
Windvlaag: -1 m/s
89%3 cm
16:00
Voelt als: -0.4°
995.0 hPa 1.2 mm
82%
0.0°
6
Windvlaag: -1.1 m/s
87%2 cm
17:00
Voelt als: 0.2°
995.9 hPa 1.4 mm
79%
0.1°
5
Windvlaag: -1.3 m/s
70%2 cm
18:00
Voelt als: -0.3°
997.1 hPa
62%
-0.4°
4
Windvlaag: 0 m/s
35%2 cm
19:00
Voelt als: -1.3°
998.2 hPa
69%
-0.6°
4
Windvlaag: 2.2 m/s
21%2 cm
20:00
Voelt als: -1.9°
999.0 hPa
78%
-0.5°
5
Windvlaag: 2.2 m/s
53%2 cm
21:00
Voelt als: -2.2°
999.5 hPa
81%
-0.5°
5
Windvlaag: 2.3 m/s
26%2 cm
22:00
Voelt als: -2.3°
1000.4 hPa
79%
-0.6°
5
Windvlaag: 2.4 m/s
53%2 cm
23:00
Voelt als: -2.2°
1000.8 hPa
82%
-0.7°
5
Windvlaag: 2.5 m/s
45%2 cm
 07:01     17:46    Daglengte: 10:45 Morgen
00:00
Voelt als: -2.4°
1001.2 hPa
82%
-0.7°
5
Windvlaag: 2.3 m/s
39%2 cm
01:00
Voelt als: -2.7°
1001.8 hPa
82%
-0.7°
6
Windvlaag: 2.2 m/s
53%2 cm
02:00
Voelt als: -2.7°
1002.3 hPa
82%
-0.6°
5
Windvlaag: 2.1 m/s
53%2 cm
03:00
Voelt als: -2.5°
1002.7 hPa
82%
-0.4°
5
Windvlaag: 2.1 m/s
55%2 cm
04:00
Voelt als: -2.7°
1002.8 hPa 1.4 mm
81%
-1.0°
5
Windvlaag: 2.2 m/s
43%2 cm
05:00
Voelt als: -2.9°
1003.4 hPa
74%
-0.9°
6
Windvlaag: 2.4 m/s
62%2 cm
06:00
Voelt als: -3.0°
1003.9 hPa
82%
-1.0°
6
Windvlaag: 2.5 m/s
55%2 cm
07:00
Voelt als: -2.9°
1004.1 hPa
80%
-1.2°
6
Windvlaag: 2.6 m/s
62%2 cm
08:00
Voelt als: -2.7°
1004.5 hPa
36%
-1.5°
6
Windvlaag: 2.9 m/s
44%2 cm
09:00
Voelt als: -1.6°
1004.6 hPa 1.5 mm
39%
-1.6°
5
Windvlaag: 2.9 m/s
35%2 cm
10:00
Voelt als: -0.9°
1004.1 hPa 1.6 mm
82%
-1.8°
6
Windvlaag: 2.9 m/s
54%2 cm
11:00
Voelt als: -0.1°
1003.5 hPa
82%
-1.2°
6
Windvlaag: 3.3 m/s
68%2 cm
12:00
Voelt als: 0.9°
1002.9 hPa
82%
-1.8°
6
Windvlaag: 3 m/s
69%2 cm
13:00
Voelt als: 1.9°
1001.8 hPa
66%
-2.7°
6
Windvlaag: 3 m/s
74%1 cm
14:00
Voelt als: 2.3°
1000.4 hPa
14%
-4.1°
5
Windvlaag: 3.4 m/s
85%1 cm
15:00
Voelt als: 2.6°
999.2 hPa
14%
-4.1°
5
Windvlaag: 3.7 m/s
87%1 cm
16:00
Voelt als: 2.4°
998.1 hPa
14%
-4.1°
4
Windvlaag: 3.3 m/s
89%1 cm
17:00
Voelt als: 2.2°
997.1 hPa
14%
-3.1°
3
Windvlaag: 3.2 m/s
90%1 cm
18:00
Voelt als: 1.5°
996.3 hPa
16%
-2.7°
3
Windvlaag: 2.5 m/s
91%1 cm
19:00
Voelt als: 0.6°
995.9 hPa 1.6 mm
24%
-2.8°
3
Windvlaag: 2.9 m/s
91%1 cm
20:00
Voelt als: -0.1°
995.2 hPa 1.7 mm
72%
-1.6°
2
Windvlaag: 1.8 m/s
91%1 cm
21:00
Voelt als: -0.9°
994.9 hPa 2.0 mm
82%
-1.2°
2
Windvlaag: 0.1 m/s
91%2 cm
22:00
Voelt als: -2.1°
995.8 hPa 2.6 mm
100%
-0.9°
3
Windvlaag: -0.2 m/s
100%3 cm warningclass
23:00
Voelt als: -2.4°
996.9 hPa 2.7 mm
100%
-0.7°
3
Windvlaag: -1.2 m/s
100%4 cm warningclass
 06:58     17:48    Daglengte: 10:50 Vrijdag 28 Feb
00:00
Voelt als: -2.7°
998.5 hPa 2.7 mm
100%
-0.5°
3
Windvlaag: -2.5 m/s
100%4 cm warningclass
01:00
Voelt als: -3.3°
1000.0 hPa 2.6 mm
44%
-0.3°
4
Windvlaag: -2.1 m/s
100%4 cm warningclass
02:00
Voelt als: -3.5°
1001.6 hPa 2.7 mm
35%
-0.2°
4
Windvlaag: -2 m/s
99%4 cm warningclass
03:00
Voelt als: -3.5°
1003.3 hPa 2.8 mm
35%
-0.2°
4
Windvlaag: -1.6 m/s
93%4 cm warningclass
04:00
Voelt als: -3.7°
1004.8 hPa 2.9 mm
27%
-0.3°
5
Windvlaag: -1.2 m/s
95%5 cm warningclass
05:00
Voelt als: -3.5°
1006.1 hPa
78%
-0.7°
5
Windvlaag: -1.1 m/s
90%5 cm
06:00
Voelt als: -3.9°
1007.4 hPa 3.0 mm
100%
-0.9°
4
Windvlaag: 0.2 m/s
95%5 cm warningclass
07:00
Voelt als: -4.0°
1008.5 hPa 2.4 mm
100%
-0.9°
5
Windvlaag: 1.5 m/s
96%4 cm warningclass
08:00
Voelt als: -3.4°
1008.9 hPa 4.9 mm
100%
-0.7°
5
Windvlaag: 1.3 m/s
90%4 cm
09:00
Voelt als: -2.2°
1010.2 hPa
97%
-0.5°
5
Windvlaag: 1.4 m/s
52%4 cm
10:00
Voelt als: -1.2°
1011.2 hPa
35%
-0.8°
7
Windvlaag: 2 m/s
16%4 cm
11:00
Voelt als: 0.0°
1012.0 hPa 4.7 mm
21%
-1.6°
7
Windvlaag: 2 m/s
20%4 cm
12:00
Voelt als: 1.0°
1012.6 hPa 4.7 mm
22%
-2.0°
7
Windvlaag: 1.9 m/s
51%3 cm
13:00
Voelt als: 1.8°
1013.0 hPa 4.7 mm
84%
-1.8°
7
Windvlaag: 1.8 m/s
34%3 cm
14:00
Voelt als: 1.9°
1013.2 hPa 4.7 mm
31%
-1.9°
7
Windvlaag: 1.9 m/s
50%2 cm
15:00
Voelt als: 2.2°
1013.6 hPa
69%
-2.7°
7
Windvlaag: 1.9 m/s
54%2 cm
16:00
Voelt als: 1.3°
1014.1 hPa
26%
-0.8°
7
Windvlaag: 1.9 m/s
41%2 cm
17:00
Voelt als: 0.7°
1014.3 hPa
22%
-1.4°
6
Windvlaag: 1.6 m/s
30%2 cm
18:00
Voelt als: 0.3°
1014.7 hPa
21%
-1.9°
5
Windvlaag: 1.4 m/s
62%2 cm
19:00
Voelt als: -0.5°
1015.0 hPa
21%
-2.2°
4
Windvlaag: 1.5 m/s
51%2 cm
20:00
Voelt als: -1.2°
1014.8 hPa
21%
-2.3°
4
Windvlaag: 10.5 m/s
50%2 cm
21:00
Voelt als: -1.8°
1014.5 hPa
21%
-2.5°
4
Windvlaag: 11.7 m/s
81%2 cm
22:00
Voelt als: -2.1°
1014.1 hPa
21%
-2.7°
4
Windvlaag: 10.2 m/s
89%2 cm
23:00
Voelt als: -2.4°
1013.7 hPa
21%
-2.7°
3
Windvlaag: 7.9 m/s
97%2 cm
 06:56     17:50    Daglengte: 10:54 Zaterdag 29 Feb
00:00
Voelt als: -2.7°
1013.1 hPa
21%
-2.7°
3
Windvlaag: 6.6 m/s
84%2 cm
01:00
Voelt als: -3.2°
1012.6 hPa
21%
-2.9°
4
Windvlaag: 1 m/s
89%2 cm
02:00
Voelt als: -3.7°
1012.2 hPa 13.8 mm
100%
-3.1°
4
Windvlaag: 6.4 m/s
98%2 cm warningclass
03:00
Voelt als: -3.4°
1011.2 hPa 13.8 mm
100%
-3.0°
4
Windvlaag: 7.7 m/s
93%2 cm warningclass
Temp/Neerslag /Baro Onweer/DauwpuntSneeuw
    Temp Baro Neerslag Dauwpunt Wind BewolkingSneeuw  
 07:03     17:45    Daglengte: 10:42 Vandaag
04:00
Voelt als: 0.6°
993.1 hPa   1.8°
3
57%
07:00
Voelt als: -0.3°
992.4 hPa 0.6 mm 1.7°
3
91%
10:00
Voelt als: -0.1°
993.2 hPa 1.0 mm -0.6°
7
41%1 cm
13:00
Voelt als: -0.2°
993.1 hPa 2.0 mm -0.6°
7
85%1 cm
16:00
Voelt als: -0.4°
995.0 hPa 3.3 mm 0.0°
6
87%2 cm
19:00
Voelt als: -1.3°
998.2 hPa 1.4 mm -0.6°
4
21%2 cm
22:00
Voelt als: -2.3°
1000.4 hPa   -0.6°
5
53%2 cm
 07:01     17:46    Daglengte: 10:45 Morgen
01:00
Voelt als: -2.7°
1001.8 hPa   -0.7°
6
53%2 cm
04:00
Voelt als: -2.7°
1002.8 hPa 1.4 mm -1.0°
5
43%2 cm
07:00
Voelt als: -2.9°
1004.1 hPa   -1.2°
6
62%2 cm
10:00
Voelt als: -0.9°
1004.1 hPa 3.1 mm -1.8°
6
54%2 cm
13:00
Voelt als: 1.9°
1001.8 hPa   -2.7°
6
74%1 cm
16:00
Voelt als: 2.4°
998.1 hPa   -4.1°
4
89%1 cm
19:00
Voelt als: 0.6°
995.9 hPa 1.6 mm -2.8°
3
91%1 cm
22:00
Voelt als: -2.1°
995.8 hPa 6.3 mm -0.9°
3
100%3 cm warningclass
 06:58     17:48    Daglengte: 10:50 Vrijdag 28 Feb
01:00
Voelt als: -3.3°
1000.0 hPa 8.0 mm -0.3°
4
100%4 cm warningclass
04:00
Voelt als: -3.7°
1004.8 hPa 8.4 mm -0.3°
5
95%5 cm warningclass
07:00
Voelt als: -4.0°
1008.5 hPa 5.4 mm -0.9°
5
96%4 cm warningclass
10:00
Voelt als: -1.2°
1011.2 hPa 4.9 mm -0.8°
7
16%4 cm
13:00
Voelt als: 1.8°
1013.0 hPa 14.1 mm -1.8°
7
34%3 cm
16:00
Voelt als: 1.3°
1014.1 hPa 4.7 mm -0.8°
7
41%2 cm
19:00
Voelt als: -0.5°
1015.0 hPa   -2.2°
4
51%2 cm
22:00
Voelt als: -2.1°
1014.1 hPa   -2.7°
4
89%2 cm
 06:56     17:50    Daglengte: 10:54 Zaterdag 29 Feb
01:00
Voelt als: -3.2°
1012.6 hPa   -2.9°
4
89%2 cm
04:00
Voelt als: -3.0°
1010.2 hPa 41.5 mm -2.8°
4
100%2 cm warningclass
07:00
Voelt als: -2.0°
1007.2 hPa 41.8 mm -2.4°
5
100%2 cm
10:00
Voelt als: 2.5°
1003.8 hPa 17.7 mm 2.1°
4
91%
13:00
Voelt als: 5.1°
1001.8 hPa 17.7 mm 4.4°
4
91%
16:00
Voelt als: 4.6°
999.4 hPa 17.7 mm 4.0°
5
91%
19:00
Voelt als: 3.8°
997.0 hPa 18.0 mm 3.5°
5
92%
22:00
Voelt als: 4.2°
997.2 hPa 18.3 mm 4.1°
6
90%
 06:54     17:52    Daglengte: 10:58 Zondag 01 Maa
01:00
Voelt als: 4.3°
997.6 hPa 18.5 mm 4.2°
8
88%
04:00
Voelt als: 1.6°
1001.7 hPa 18.5 mm 2.0°
6
52%
07:00
Voelt als: -0.9°
1005.7 hPa 18.5 mm -0.3°
5
16%
10:00
Voelt als: 2.1°
1006.5 hPa 18.6 mm -0.9°
6
52%
13:00
Voelt als: 5.1°
1007.1 hPa 18.7 mm -2.5°
6
88%
16:00
Voelt als: 3.1°
1007.0 hPa 18.8 mm -2.2°
4
65%
19:00
Voelt als: 1.1°
1007.0 hPa 18.8 mm -2.3°
3
41%
22:00
Voelt als: -1.1°
1005.6 hPa 18.8 mm -2.3°
3
20%
 06:52     17:53    Daglengte: 11:01 Maandag 02 Maa
01:00
Voelt als: -3.0°
1004.4 hPa 23.0 mm -2.2°
3
0% warningclass
04:00
Voelt als: -2.6°
1002.7 hPa 24.4 mm -2.0°
4
46% warningclass
07:00
Voelt als: -2.2°
1000.9 hPa 24.4 mm -1.8°
4
91%
10:00
Voelt als: 1.6°
999.5 hPa 24.7 mm 0.4°
5
91%
13:00
Voelt als: 5.4°
998.4 hPa 25.3 mm 1.9°
6
92%
16:00
Voelt als: 3.7°
999.3 hPa 25.4 mm 2.6°
4
57%
19:00
Voelt als: 2.1°
1000.1 hPa 25.4 mm 3.0°
3
22%
22:00
Voelt als: 0.5°
1002.3 hPa 25.5 mm 1.8°
3
21%
 06:50     17:55    Daglengte: 11:05 Dinsdag 03 Maa
01:00
Voelt als: -1.0°
1004.4 hPa 25.5 mm 0.6°
3
20%
04:00
Voelt als: -2.9°
1006.4 hPa 25.5 mm -0.8°
3
56% warningclass
07:00
-1°
Voelt als: -4.8°
1008.5 hPa 25.5 mm -2.3°
3
91% warningclass
10:00
Voelt als: 0.9°
1010.2 hPa 25.5 mm -0.4°
2
91%
13:00
Voelt als: 6.3°
1012.0 hPa 25.7 mm 0.5°
2
91%
16:00
Voelt als: 4.5°
1013.2 hPa 26.0 mm -0.2°
2
63%
19:00
Voelt als: 2.7°
1014.4 hPa 26.0 mm -0.6°
2
36%
22:00
Voelt als: -0.2°
1014.9 hPa 26.0 mm -0.9°
2
39%
 06:48     17:57    Daglengte: 11:09 Woensdag 04 Maa
01:00
-0°
Voelt als: -3.1°
1015.2 hPa 52.1 mm -1.6°
2
42% warningclass
07:00
Voelt als: -3.7°
1011.6 hPa 52.1 mm -1.1°
4
2% warningclass
13:00
Voelt als: 1.8°
1007.1 hPa 52.1 mm 1.9°
7
92%
19:00
Voelt als: 1.6°
1004.9 hPa 52.5 mm 2.6°
5
13%
 06:45     17:59    Daglengte: 11:14 Donderdag 05 Maa
01:00
Voelt als: 0.5°
1002.2 hPa 52.9 mm 2.4°
5
58%
07:00
Voelt als: 1.7°
996.4 hPa 53.1 mm 3.5°
7
82%
13:00
Voelt als: 1.8°
999.8 hPa 53.1 mm -2.5°
10
91%
19:00
Voelt als: 0.7°
999.8 hPa 53.6 mm -3.8°
5
14%
 06:43     18:00    Daglengte: 11:17 Vrijdag 06 Maa
01:00
Voelt als: -1.2°
999.5 hPa 53.7 mm -0.7°
4
42%
07:00
Voelt als: -2.6°
999.8 hPa 55.2 mm -0.6°
5
18%
13:00
Voelt als: 2.0°
995.7 hPa 57.5 mm 2.1°
6
1%
19:00
Voelt als: -0.9°
998.0 hPa 62.9 mm 2.8°
6
1%
 06:41     18:02    Daglengte: 11:21 Zaterdag 07 Maa
01:00
Voelt als: -2.1°
1006.0 hPa 0.5 mm 0.3°
4
58%
07:00
Voelt als: -2.7°
1007.9 hPa 0.6 mm -1.0°
3
59%
13:00
Voelt als: 2.3°
1009.3 hPa 0.3 mm 0.6°
3
54%
19:00
Voelt als: -0.0°
1011.2 hPa 0.4 mm 0.1°
2
67%
 06:39     18:04    Daglengte: 11:25 Zondag 08 Maa
01:00
Voelt als: -2.1°
1012.8 hPa 0.2 mm -0.7°
3
56%
07:00
Voelt als: -2.9°
1013.6 hPa 0.2 mm -1.0°
3
50%
13:00
Voelt als: 3.3°
1014.0 hPa 0.2 mm 0.9°
3
52%
19:00
Voelt als: 1.7°
1014.4 hPa 0.4 mm 0.4°
1
55%
 06:37     18:05    Daglengte: 11:28 Maandag 09 Maa
01:00
Voelt als: -0.4°
1015.5 hPa 0.4 mm -0.1°
2
55%
07:00
Voelt als: -0.8°
1016.6 hPa 0.4 mm -0.4°
1
55%
13:00
Voelt als: 3.6°
1017.6 hPa 0.3 mm 1.2°
2
57%
19:00
Voelt als: 1.4°
1018.5 hPa 0.4 mm 0.5°
1
60%
 06:34     18:07    Daglengte: 11:33 Dinsdag 10 Maa
01:00
Voelt als: 0.0°
1019.4 hPa 0.2 mm -0.3°
1
53%
07:00
Voelt als: 0.5°
1019.1 hPa 0.1 mm -1.0°
1
53%
13:00
Voelt als: 4.8°
1018.0 hPa 0.4 mm 1.0°
2
58%
19:00
Voelt als: 1.5°
1017.2 hPa 0.8 mm 0.4°
2
57%
 06:32     18:09    Daglengte: 11:37 Woensdag 11 Maa
01:00
Voelt als: 0.1°
1017.4 hPa 0.8 mm 0.4°
2
57%
07:00
Voelt als: -0.5°
1018.0 hPa 0.6 mm -0.2°
2
53%
13:00
Voelt als: 4.8°
1017.9 hPa 0.3 mm 1.5°
2
54%
19:00
Voelt als: 1.9°
1017.6 hPa 0.5 mm 1.2°
2
56%
 06:30     18:11    Daglengte: 11:41 Donderdag 12 Maa
01:00
Voelt als: -0.0°
1018.2 hPa 0.4 mm 0.4°
2
43%
  CAPE Lifted Index Hail Supercell Tornado SRH 3km CL BTM PRES CL TOP PRES Swiss DWD icon SMHI TS
 07:03     17:45    Daglengte: 10:42 Vandaag
04:00 0 J/kg 1.3 K 0 % 0 % 0 % 0 m²/s² 0 0 4.78 2
05:00 0 J/kg 1.5 K 0 % 0 % 0 % 0 m²/s² 0 0 5.67 3
06:00 0 J/kg 0.8 K 0 % 0 % 0 % 0 m²/s² 0 0 3.05 3
07:00 41 J/kg 0.9 K 0 % 0 % 0 % 0 m²/s² 0 0 1.5 3
08:00 0 J/kg 1.9 K 0 % 0 % 0 % 0 m²/s² 0 0 2.5 61
09:00 19 J/kg 1.9 K 0 % 0 % 0 % 0 m²/s² 0 0 2.5 3
10:00 10 J/kg 2.2 K 0 % 0 % 0 % 0 m²/s² 0 0 3.97 3
11:00 36 J/kg 1.6 K 0 % 0 % 0 % 0 m²/s² 0 0 4.57 3
12:00 66 J/kg 0.8 K 0 % 0 % 0 % 0 m²/s² 0 0 3.05 61
13:00 91 J/kg 0.0 K 0 % 0 % 0 % 0 m²/s² 0 0 0.75 61
14:00 0 J/kg -0.2 K 0 % 0 % 0 % 0 m²/s² 0 0 0.4 61
15:00 14 J/kg 0.9 K 0 % 0 % 0 % 0 m²/s² 0 0 1.5 61
16:00 21 J/kg 0.8 K 0 % 0 % 0 % 0 m²/s² 0 0 1.52 61
17:00 137 J/kg -0.6 K 0 % 0 % 0 % 0 m²/s² 0 0 2.88 3
18:00 86 J/kg -0.5 K 0 % 0 % 0 % 0 m²/s² 0 0 1.9 2
19:00 152 J/kg -0.7 K 0 % 0 % 0 % 0 m²/s² 0 0 1.37 2
20:00 61 J/kg -0.9 K 0 % 0 % 0 % 0 m²/s² 0 0 1.62 2
21:00 0 J/kg -0.4 K 0 % 0 % 0 % 0 m²/s² 0 0 1.85 2
22:00 0 J/kg 0.6 K 0 % 0 % 0 % 0 m²/s² 0 0 2.25 2
23:00 0 J/kg 1.0 K 0 % 0 % 0 % 0 m²/s² 0 0 3.31 2
 07:01     17:46    Daglengte: 10:45 Morgen
00:00 0 J/kg 1.1 K 0 % 0 % 0 % 0 m²/s² 0 0 3.35 3
01:00 0 J/kg 1.2 K 0 % 0 % 0 % 0 m²/s² 0 0 4.17 3
02:00 0 J/kg 0.9 K 0 % 0 % 0 % 0 m²/s² 0 0 3.3 3
03:00 8 J/kg 0.2 K 0 % 0 % 0 % 0 m²/s² 0 0 2.27 3
04:00 0 J/kg 0.5 K 0 % 0 % 0 % 0 m²/s² 0 0 2.39 3
05:00 0 J/kg 0.1 K 0 % 0 % 0 % 0 m²/s² 0 0 1.66 3
06:00 0 J/kg 0.7 K 0 % 0 % 0 % 0 m²/s² 0 0 4.15 2
07:00 0 J/kg 1.3 K 0 % 0 % 0 % 0 m²/s² 0 0 6.85 3
08:00 0 J/kg 2.2 K 0 % 0 % 0 % 0 m²/s² 0 0 9.22 2
09:00 0 J/kg 4.8 K 0 % 0 % 0 % 0 m²/s² 0 0 7.89 2
10:00 7 J/kg 5.9 K 0 % 0 % 0 % 0 m²/s² 0 0 7.22 85
11:00 51 J/kg 6.1 K 0 % 0 % 0 % 0 m²/s² 0 0 7.6 2
12:00 68 J/kg 6.0 K 0 % 0 % 0 % 0 m²/s² 0 0 9.57 85
13:00 53 J/kg 6.6 K 0 % 0 % 0 % 0 m²/s² 0 0 11.25 3
14:00 19 J/kg 7.5 K 0 % 0 % 0 % 0 m²/s² 0 0 11.4 3
15:00 27 J/kg 7.3 K 0 % 0 % 0 % 0 m²/s² 0 0 10.33 3
16:00 20 J/kg 7.8 K 0 % 0 % 0 % 0 m²/s² 0 0 8.49 3
17:00 4 J/kg 8.9 K 0 % 0 % 0 % 0 m²/s² 0 0 9.47 3
18:00 13 J/kg 9.5 K 0 % 0 % 0 % 0 m²/s² 0 0 10.07 3
19:00 1 J/kg 9.8 K 0 % 0 % 0 % 0 m²/s² 0 0 10.37 3
20:00 0 J/kg 9.7 K 0 % 0 % 0 % 0 m²/s² 0 0 10.24 3
21:00 0 J/kg 8.7 K 0 % 0 % 0 % 0 m²/s² 0 0 9.27 3
22:00 0 J/kg 8.0 K 0 % 0 % 0 % 0 m²/s² 0 0 8.57 61
23:00 0 J/kg 8.3 K 0 % 0 % 0 % 0 m²/s² 0 0 8.9 61
 06:58     17:48    Daglengte: 10:50 Vrijdag 28 Feb
00:00 8 J/kg 7.6 K 0 % 0 % 0 % 0 m²/s² 0 0 8.2 3
01:00 0 J/kg 6.4 K 0 % 0 % 0 % 0 m²/s² 0 0 7.09 3
02:00 1 J/kg 5.1 K 0 % 0 % 0 % 0 m²/s² 0 0 5.7 3
03:00 0 J/kg 4.3 K 0 % 0 % 0 % 0 m²/s² 0 0 4.93 3
04:00 0 J/kg 4.3 K 0 % 0 % 0 % 0 m²/s² 0 0 4.93 3
05:00 0 J/kg 3.4 K 0 % 0 % 0 % 0 m²/s² 0 0 4.12 3
06:00 0 J/kg 3.0 K 0 % 0 % 0 % 0 m²/s² 0 0 3.57 71
07:00 0 J/kg 2.1 K 0 % 0 % 0 % 0 m²/s² 0 0 3.21 71
08:00 0 J/kg 3.2 K 0 % 0 % 0 % 0 m²/s² 0 0 4.85 3
09:00 1 J/kg 2.6 K 0 % 0 % 0 % 0 m²/s² 0 0 7.28 2
10:00 0 J/kg 3.7 K 0 % 0 % 0 % 0 m²/s² 0 0 7.9 2
11:00 11 J/kg 4.6 K 0 % 0 % 0 % 0 m²/s² 0 0 8.32 2
12:00 52 J/kg 5.1 K 0 % 0 % 0 % 0 m²/s² 0 0 8.82 3
13:00 103 J/kg 5.4 K 0 % 0 % 0 % 0 m²/s² 0 0 8.76 2
14:00 105 J/kg 5.9 K 0 % 0 % 0 % 0 m²/s² 0 0 10.61 1
15:00 82 J/kg 6.2 K 0 % 0 % 0 % 0 m²/s² 0 0 11.81 3
16:00 44 J/kg 6.5 K 0 % 0 % 0 % 0 m²/s² 0 0 12.89 1
17:00 0 J/kg 7.3 K 0 % 0 % 0 % 0 m²/s² 0 0 13.51 1
18:00 0 J/kg 8.2 K 0 % 0 % 0 % 0 m²/s² 0 0 14.05 0
19:00 0 J/kg 9.7 K 0 % 0 % 0 % 0 m²/s² 0 0 14.65 0
20:00 0 J/kg 10.7 K 0 % 0 % 0 % 0 m²/s² 0 0 15.38 1
21:00 0 J/kg 11.3 K 0 % 0 % 0 % 0 m²/s² 0 0 15.23 3
22:00 0 J/kg 12.2 K 0 % 0 % 0 % 0 m²/s² 0 0 14.66 3
23:00 0 J/kg 12.8 K 0 % 0 % 0 % 0 m²/s² 0 0 14.81 3
 06:56     17:50    Daglengte: 10:54 Zaterdag 29 Feb
00:00 0 J/kg 13.1 K 0 % 0 % 0 % 0 m²/s² 0 0 14.03 3
01:00 0 J/kg 13.0 K 0 % 0 % 0 % 0 m²/s² 0 0 13.72 3
02:00 0 J/kg 12.9 K 0 % 0 % 0 % 0 m²/s² 0 0 13.41
03:00 0 J/kg 14.0 K 0 % 0 % 0 % 0 m²/s² 0 0 14.45
Temp Baro Wind Neerslag
  EWN Forecast EWN WRFDA DWD ICON FMI HIRLAM MET Norway GFS
 07:03     17:45    Daglengte: 10:42 Vandaag
04:00 3.7° 993.1 hPa 3.5 m/s 0.0 mm 2.2° 989.3 hPa 4.1 m/s 0.1 mm 4.0° 993.7 hPa 3.2 m/s -1.0 mm 3.2° 992.3 hPa 2.8 m/s 0.0 mm 3.8° 993.4 hPa 3.5 m/s 3.9° 993.0 hPa 4.0 m/s
07:00 2.9° 992.4 hPa 3.3 m/s 0.6 mm 3.1° 988.4 hPa 2.9 m/s 0.3 mm 3.4° 992.9 hPa 3.1 m/s 0.1 mm 3.7° 990.8 hPa 5.8 m/s 0.0 mm 1.8° 992.8 hPa 3.1 m/s 2.1° 993.2 hPa 6.2 m/s
10:00 4.5° 993.2 hPa 7.1 m/s 1.0 mm 3.9° 988.4 hPa 7.6 m/s 7.5 mm 4.5° 993.7 hPa 6.6 m/s 1.0 mm 5.3° 990.9 hPa 8.8 m/s 0.0 mm 4.1° 993.9 hPa 6.5 m/s 4.4° 993.1 hPa 8.6 m/s
13:00 4.4° 993.1 hPa 6.9 m/s 2.0 mm 5.5° 988.1 hPa 5.4 m/s 8.2 mm 3.9° 993.9 hPa 6.8 m/s 0.6 mm 4.3° 990.3 hPa 6.0 m/s 0.0 mm 4.2° 993.9 hPa 7.3 m/s 4.7° 993.3 hPa 7.3 m/s
16:00 4.0° 995.0 hPa 6.0 m/s 3.3 mm 3.2° 990.5 hPa 3.7 m/s 17.5 mm 3.8° 995.6 hPa 3.3 m/s 0.7 mm 5.1° 991.4 hPa 6.7 m/s 0.0 mm 4.2° 995.6 hPa 6.4 m/s 3.8° 995.0 hPa 7.0 m/s
19:00 2.6° 998.2 hPa 4.4 m/s 1.4 mm 3.9° 992.7 hPa 5.4 m/s 19.1 mm 2.6° 998.7 hPa 3.0 m/s 0.2 mm 4.2° 994.5 hPa 4.7 m/s 0.0 mm 2.2° 999.0 hPa 4.6 m/s 2.3° 998.1 hPa 3.4 m/s
22:00 2.3° 1000.4 hPa 5.4 m/s 0.0 mm 1.8° 995.5 hPa 6.4 m/s 19.4 mm 2.1° 1000.6 hPa 3.5 m/s 0.4 mm 3.2° 997.3 hPa 4.9 m/s 0.0 mm 2.4° 1001.2 hPa 5.6 m/s 2.8° 1000.7 hPa 6.3 m/s
 07:01     17:46    Daglengte: 10:45 Morgen
01:00 2.1° 1001.8 hPa 5.8 m/s 0.0 mm 1.1° 997.6 hPa 6.3 m/s 19.4 mm 2.0° 1001.7 hPa 3.6 m/s 0.3 mm 3.3° 999.6 hPa 6.7 m/s 0.0 mm 2.1° 1002.5 hPa 5.4 m/s 1.3° 1003.2 hPa 4.7 m/s
04:00 2.0° 1002.8 hPa 5.5 m/s 1.4 mm 0.7° 998.1 hPa 5.8 m/s 19.5 mm 2.0° 1003.0 hPa 4.2 m/s 0.4 mm 3.5° 1001.5 hPa 6.1 m/s 0.0 mm 1.9° 1003.3 hPa 5.2 m/s 1.8° 1003.8 hPa 5.9 m/s
07:00 1.9° 1004.1 hPa 5.6 m/s 0.0 mm 0.4° 999.7 hPa 6.5 m/s 19.8 mm 1.8° 1004.2 hPa 4.4 m/s 0.0 mm 3.8° 1002.4 hPa 7.0 m/s 0.0 mm 1.8° 1004.6 hPa 5.1 m/s 0.4° 1005.3 hPa 5.4 m/s
10:00 3.5° 1004.1 hPa 5.9 m/s 3.1 mm 3.1° 1000.4 hPa 6.9 m/s 19.8 mm 3.2° 1004.9 hPa 5.3 m/s 0.2 mm 5.2° 1002.6 hPa 8.0 m/s 0.0 mm 3.6° 1004.3 hPa 5.9 m/s 3.6° 1005.1 hPa 6.6 m/s
13:00 5.6° 1001.8 hPa 5.6 m/s 0.0 mm 5.6° 998.6 hPa 5.8 m/s 19.8 mm 5.5° 1003.1 hPa 5.8 m/s 0.2 mm 7.2° 1000.5 hPa 7.6 m/s 0.0 mm 5.3° 1002.2 hPa 5.2 m/s 5.3° 1002.8 hPa 6.4 m/s
16:00 5.6° 998.1 hPa 4.2 m/s 0.0 mm 5.7° 994.4 hPa 5.0 m/s 19.8 mm 5.6° 1000.0 hPa 3.2 m/s 0.0 mm 6.5° 997.6 hPa 5.5 m/s 0.0 mm 5.5° 998.9 hPa 3.7 m/s 5.0° 998.2 hPa 4.2 m/s
19:00 3.4° 995.9 hPa 2.9 m/s 1.6 mm 4.2° 990.2 hPa 3.3 m/s 19.8 mm 3.6° 998.2 hPa 2.2 m/s 0.0 mm 5.4° 995.4 hPa 3.2 m/s 0.0 mm 2.5° 997.2 hPa 1.7 m/s 2.1° 992.4 hPa 6.3 m/s
22:00 1.1° 995.8 hPa 2.9 m/s 6.3 mm 0.5° 986.6 hPa 6.7 m/s 25.0 mm 2.9° 998.5 hPa 0.7 m/s 0.1 mm 1.0° 997.0 hPa 2.4 m/s 1.8° 985.7 hPa 6.5 m/s
 06:58     17:48    Daglengte: 10:50 Vrijdag 28 Feb
01:00 0.8° 1000.0 hPa 4.0 m/s 8.0 mm 1.0° 991.9 hPa 8.1 m/s 35.4 mm 1.4° 1000.6 hPa 1.9 m/s 0.1 mm 0.7° 1001.5 hPa 3.5 m/s 1.0° 990.3 hPa 8.6 m/s
04:00 0.7° 1004.8 hPa 4.5 m/s 8.4 mm 1.0° 998.8 hPa 7.1 m/s 39.2 mm 0.7° 1003.6 hPa 2.7 m/s 0.0 mm 0.6° 1005.5 hPa 4.1 m/s 0.5° 1000.7 hPa 9.4 m/s
07:00 0.6° 1008.5 hPa 4.7 m/s 5.4 mm 0.7° 1002.9 hPa 5.8 m/s 41.1 mm 0.5° 1006.5 hPa 4.0 m/s 1.3 mm 0.6° 1009.3 hPa 4.5 m/s 0.6° 1007.3 hPa 6.9 m/s
10:00 3.5° 1011.2 hPa 6.6 m/s 4.9 mm 3.3° 1006.2 hPa 5.9 m/s 41.3 mm 3.4° 1010.6 hPa 6.1 m/s 0.1 mm 3.7° 1012.6 hPa 7.2 m/s 2.7° 1010.8 hPa 6.7 m/s
13:00 6.0° 1013.0 hPa 7.1 m/s 14.1 mm 5.3° 1008.2 hPa 9.2 m/s 41.4 mm 7.0° 1012.5 hPa 6.3 m/s 0.0 mm 5.9° 1014.3 hPa 7.0 m/s 4.7° 1012.8 hPa 8.9 m/s
16:00 5.6° 1014.1 hPa 6.9 m/s 4.7 mm 4.9° 1009.2 hPa 9.6 m/s 41.5 mm 6.6° 1013.8 hPa 5.4 m/s 0.0 mm 5.5° 1015.4 hPa 6.8 m/s 4.4° 1013.0 hPa 6.5 m/s
19:00 3.1° 1015.0 hPa 4.2 m/s 0.0 mm 2.4° 1009.8 hPa 5.7 m/s 41.5 mm 3.4° 1014.6 hPa 2.5 m/s 0.0 mm 3.2° 1016.3 hPa 4.3 m/s 1.5° 1013.4 hPa 3.3 m/s
22:00 1.6° 1014.1 hPa 3.7 m/s 0.0 mm 1.3° 1009.6 hPa 3.7 m/s 41.5 mm 1.8° 1014.1 hPa 2.4 m/s 0.0 mm 1.6° 1015.0 hPa 4.1 m/s 0.8° 1013.0 hPa 3.0 m/s
 06:56     17:50    Daglengte: 10:54 Zaterdag 29 Feb
01:00 0.6° 1012.6 hPa 3.5 m/s 0.0 mm 1.0° 1008.8 hPa 2.5 m/s 41.5 mm 1.4° 1012.0 hPa 3.3 m/s 0.0 mm 0.0° 1013.8 hPa 3.9 m/s 0.9° 1011.5 hPa 3.3 m/s
04:00 1.2° 1010.2 hPa 4.3 m/s 41.5 mm 1.4° 1006.0 hPa 3.5 m/s 41.5 mm 1.1° 1010.8 hPa 4.5 m/s 1.1° 1008.1 hPa 3.8 m/s
07:00 2.3° 1007.2 hPa 4.9 m/s 41.8 mm 2.4° 1002.8 hPa 4.4 m/s 41.8 mm 2.3° 1007.9 hPa 5.0 m/s 1.8° 1004.6 hPa 5.1 m/s
10:00 5.7° 1003.8 hPa 4.4 m/s 17.7 mm 5.8° 1004.0 hPa 4.4 m/s 4.6° 1002.1 hPa 4.0 m/s 17.7 mm
13:00 7.7° 1001.8 hPa 4.2 m/s 17.7 mm 7.5° 1002.0 hPa 4.1 m/s 10.2° 999.4 hPa 5.0 m/s 17.7 mm
16:00 7.4° 999.4 hPa 4.6 m/s 17.7 mm 7.2° 999.6 hPa 4.5 m/s 10.4° 996.3 hPa 5.2 m/s 17.7 mm
19:00 7.0° 997.0 hPa 5.1 m/s 18.0 mm 6.8° 997.3 hPa 4.9 m/s 9.1° 994.3 hPa 7.7 m/s 18.0 mm
22:00 7.7° 997.2 hPa 6.5 m/s 18.3 mm 7.6° 997.5 hPa 6.3 m/s 9.8° 994.9 hPa 8.7 m/s 18.3 mm
 06:54     17:52    Daglengte: 10:58 Zondag 01 Maa
01:00 8.1° 997.6 hPa 7.7 m/s 18.5 mm 8.3° 997.6 hPa 7.7 m/s 5.7° 997.5 hPa 7.9 m/s 18.5 mm
04:00 5.6° 1001.7 hPa 6.4 m/s 18.5 mm 5.8° 1002.0 hPa 6.5 m/s 3.9° 998.4 hPa 5.3 m/s 18.5 mm
07:00 3.3° 1005.7 hPa 5.2 m/s 18.5 mm 3.3° 1006.4 hPa 5.2 m/s 3.6° 998.0 hPa 5.3 m/s 18.5 mm
10:00 5.8° 1006.5 hPa 5.6 m/s 18.6 mm 5.8° 1007.1 hPa 5.3 m/s 5.9° 999.0 hPa 8.4 m/s 18.6 mm
13:00 8.3° 1007.1 hPa 5.7 m/s 18.7 mm 8.3° 1007.9 hPa 5.4 m/s 7.8° 998.0 hPa 8.8 m/s 18.7 mm
16:00 6.2° 1007.0 hPa 4.4 m/s 18.8 mm 6.1° 1008.0 hPa 4.2 m/s 7.6° 996.8 hPa 7.1 m/s 18.8 mm
19:00 3.9° 1007.0 hPa 3.1 m/s 18.8 mm 3.8° 1008.0 hPa 3.0 m/s 4.7° 996.0 hPa 4.5 m/s 18.8 mm
22:00 2.2° 1005.6 hPa 3.3 m/s 18.8 mm 2.0° 1006.8 hPa 3.2 m/s 4.2° 993.5 hPa 4.5 m/s 18.8 mm
 06:52     17:53    Daglengte: 11:01 Maandag 02 Maa
01:00 0.6° 1004.4 hPa 3.4 m/s 23.0 mm 0.3° 1005.5 hPa 3.4 m/s 4.3° 992.6 hPa 3.0 m/s 23.0 mm
04:00 1.1° 1002.7 hPa 3.5 m/s 24.4 mm 0.8° 1003.6 hPa 3.4 m/s 4.9° 993.2 hPa 4.7 m/s 24.4 mm
07:00 1.4° 1000.9 hPa 3.5 m/s 24.4 mm 1.2° 1001.7 hPa 3.4 m/s 3.8° 991.6 hPa 4.9 m/s 24.4 mm
10:00 5.0° 999.5 hPa 4.5 m/s 24.7 mm 4.8° 1000.4 hPa 4.2 m/s 7.2° 989.9 hPa 7.8 m/s 24.7 mm
13:00 8.4° 998.4 hPa 5.5 m/s 25.3 mm 8.4° 999.1 hPa 5.0 m/s 8.2° 991.0 hPa 11.1 m/s 25.3 mm
16:00 6.6° 999.3 hPa 4.4 m/s 25.4 mm 6.6° 999.9 hPa 4.0 m/s 7.6° 992.1 hPa 8.3 m/s 25.4 mm
19:00 4.7° 1000.1 hPa 3.1 m/s 25.4 mm 4.7° 1000.7 hPa 3.0 m/s 4.8° 993.6 hPa 4.6 m/s 25.4 mm
22:00 3.4° 1002.3 hPa 3.1 m/s 25.5 mm 3.2° 1003.0 hPa 2.9 m/s 4.7° 994.0 hPa 5.8 m/s 25.5 mm
 06:50     17:55    Daglengte: 11:05 Dinsdag 03 Maa
01:00 2.0° 1004.4 hPa 3.0 m/s 25.5 mm 1.8° 1005.3 hPa 2.7 m/s 4.8° 994.6 hPa 6.3 m/s 25.5 mm
04:00 0.3° 1006.4 hPa 2.7 m/s 25.5 mm -0.1° 1007.5 hPa 2.5 m/s 3.8° 995.0 hPa 5.1 m/s 25.5 mm
07:00 -1.5° 1008.5 hPa 2.6 m/s 25.5 mm -1.9° 1009.6 hPa 2.3 m/s 3.2° 996.3 hPa 5.3 m/s 25.5 mm
10:00 3.3° 1010.2 hPa 2.5 m/s 25.5 mm 2.9° 1011.4 hPa 2.0 m/s 7.1° 997.1 hPa 8.0 m/s 25.5 mm
13:00 7.7° 1012.0 hPa 2.3 m/s 25.7 mm 7.8° 1013.2 hPa 1.7 m/s 6.7° 998.3 hPa 8.7 m/s 25.7 mm
16:00 6.1° 1013.2 hPa 2.2 m/s 26.0 mm 6.1° 1014.4 hPa 1.6 m/s 6.3° 999.9 hPa 8.6 m/s 26.0 mm
19:00 4.3° 1014.4 hPa 1.9 m/s 26.0 mm 4.4° 1015.6 hPa 1.6 m/s 3.2° 1001.8 hPa 5.0 m/s 26.0 mm
22:00 2.0° 1014.9 hPa 2.1 m/s 26.0 mm 2.0° 1016.0 hPa 1.8 m/s 2.1° 1003.3 hPa 5.5 m/s 26.0 mm
 06:48     17:57    Daglengte: 11:09 Woensdag 04 Maa
01:00 -0.4° 1015.2 hPa 2.1 m/s 26.0 mm -0.5° 1016.3 hPa 1.9 m/s 0.8° 1002.7 hPa 4.6 m/s 26.0 mm
07:00 0.3° 1011.6 hPa 3.7 m/s 26.0 mm 0.0° 1012.9 hPa 3.6 m/s 3.6° 996.8 hPa 5.3 m/s 26.0 mm
13:00 5.9° 1007.1 hPa 6.6 m/s 26.0 mm 5.6° 1008.6 hPa 6.6 m/s 9.4° 991.2 hPa 7.1 m/s 26.0 mm
19:00 5.3° 1004.9 hPa 5.1 m/s 26.3 mm 5.1° 1006.5 hPa 5.1 m/s 7.1° 987.8 hPa 4.8 m/s 26.3 mm
 06:45     17:59    Daglengte: 11:14 Donderdag 05 Maa
01:00 4.1° 1002.2 hPa 4.6 m/s 26.5 mm 4.0° 1003.5 hPa 4.5 m/s 5.7° 988.3 hPa 6.1 m/s 26.5 mm
07:00 6.0° 996.4 hPa 7.4 m/s 26.6 mm 6.3° 997.1 hPa 7.7 m/s 3.1° 988.9 hPa 4.4 m/s 26.6 mm
13:00 6.7° 999.8 hPa 10.3 m/s 26.6 mm 6.7° 1000.8 hPa 10.6 m/s 6.8° 988.9 hPa 6.7 m/s 26.6 mm
19:00 4.3° 999.8 hPa 4.6 m/s 26.9 mm 4.4° 1000.8 hPa 4.8 m/s 3.6° 989.2 hPa 2.8 m/s 26.9 mm
 06:43     18:00    Daglengte: 11:17 Vrijdag 06 Maa
01:00 2.7° 999.5 hPa 4.4 m/s 26.9 mm 2.6° 1000.3 hPa 4.4 m/s 3.8° 991.1 hPa 4.4 m/s 26.9 mm
07:00 1.7° 999.8 hPa 4.7 m/s 27.9 mm 1.6° 1000.5 hPa 4.8 m/s 3.2° 992.6 hPa 3.9 m/s 27.9 mm
13:00 6.0° 995.7 hPa 6.3 m/s 29.2 mm 6.0° 995.7 hPa 6.3 m/s 29.2 mm
19:00 3.4° 998.0 hPa 5.5 m/s 32.2 mm 3.4° 998.0 hPa 5.5 m/s 32.2 mm
 06:41     18:02    Daglengte: 11:21 Zaterdag 07 Maa
01:00 1.6° 1006.0 hPa 3.6 m/s 0.5 mm
07:00 0.4° 1007.9 hPa 2.6 m/s 0.6 mm
13:00 4.9° 1009.3 hPa 3.0 m/s 0.3 mm
19:00 2.1° 1011.2 hPa 2.0 m/s 0.4 mm
 06:39     18:04    Daglengte: 11:25 Zondag 08 Maa
01:00 0.8° 1012.8 hPa 2.5 m/s 0.2 mm
07:00 0.3° 1013.6 hPa 2.8 m/s 0.2 mm
13:00 5.4° 1014.0 hPa 2.5 m/s 0.2 mm
19:00 2.3° 1014.4 hPa 1.0 m/s 0.4 mm
 06:37     18:05    Daglengte: 11:28 Maandag 09 Maa
01:00 1.3° 1015.5 hPa 1.5 m/s 0.4 mm
07:00 0.8° 1016.6 hPa 1.5 m/s 0.4 mm
13:00 5.4° 1017.6 hPa 2.2 m/s 0.3 mm
19:00 2.3° 1018.5 hPa 1.1 m/s 0.4 mm
 06:34     18:07    Daglengte: 11:33 Dinsdag 10 Maa
01:00 1.2° 1019.4 hPa 1.3 m/s 0.2 mm
07:00 0.6° 1019.1 hPa 0.8 m/s 0.1 mm
13:00 6.2° 1018.0 hPa 2.0 m/s 0.4 mm
19:00 3.1° 1017.2 hPa 1.7 m/s 0.8 mm
 06:32     18:09    Daglengte: 11:37 Woensdag 11 Maa
01:00 2.2° 1017.4 hPa 2.0 m/s 0.8 mm
07:00 1.3° 1018.0 hPa 1.6 m/s 0.6 mm
13:00 6.5° 1017.9 hPa 2.3 m/s 0.3 mm
19:00 3.5° 1017.6 hPa 1.8 m/s 0.5 mm
 06:30     18:11    Daglengte: 11:41 Donderdag 12 Maa
01:00 2.2° 1018.2 hPa 2.1 m/s 0.4 mm
FMI Hirlam - 7.5 km EWN WRFDA - 12 km DWD ICON - 7 km GFS - 25 km Basiskaart






























































Updatetijd (Europe/Amsterdam) Resolutie Lengte Stap
FMI Hirlam 01:00, 07:00, 13:00, 19:00 7.5 km 49h 1h
EWN WRFDA 02:15, 08:15, 14:15, 20:15 12 km 73h 1h
DWD ICON 22:45, 04:45, 10:45, 16:45 7 km 75h 1h
GFS 01:00, 07:00, 13:00, 19:00 25 km 237h 3h
30+ mm
25-30 mm
20-25 mm
15-20 mm
10-15 mm
6-10 mm
4-6 mm
2-4 mm
1-2 mm
0.5-1 mm
0.2-0.5 mm
0.1-0.2 mm
30+ mm
25-30 mm
20-25 mm
15-20 mm
10-15 mm
6-10 mm
4-6 mm
2-4 mm
1-2 mm
0.5-1 mm
0.2-0.5 mm
0.1-0.2 mm
Sneeuwval
Natte sneeuw
Hagel
Vorst
30+ mm
25-30 mm
20-25 mm
15-20 mm
10-15 mm
6-10 mm
4-6 mm
2-4 mm
1-2 mm
0.5-1 mm
0.2-0.5 mm
0.1-0.2 mm
Sneeuwval
Natte sneeuw
Hagel
Vorst
Onweer
50 mm
40 mm
30 mm
26 mm
22 mm
18 mm
14 mm
10 mm
9 mm
8 mm
7 mm
6 mm
5 mm
4.5 mm
4 mm
3.5 mm
3 mm
2.5 mm
2 mm
1.5 mm
1 mm
0.8 mm
0.6 mm
0.4 mm
0.2 mm
0.05 mm
35°
30°
25°
20°
15°
10°
-5°
-10°
-15°
-20°
-25°
-30°
-35°
33> m/s
29 m/s
25 m/s
21 m/s
17 m/s
14 m/s
11 m/s
8 m/s
5 m/s
3 m/s
0 m/s
2600 J/kg
2400 J/kg
2200 J/kg
2000 J/kg
1800 J/kg
1600 J/kg
1400 J/kg
1200 J/kg
1000 J/kg
800 J/kg
600 J/kg
400 J/kg
200 J/kg
70 dBZ
65 dBZ
60 dBZ
55 dBZ
50 dBZ
45 dBZ
40 dBZ
35 dBZ
30 dBZ
25 dBZ
20 dBZ
15 dBZ
10 dBZ
5 dBZ
-1 K
-2 K
-3 K
-4 K
-5 K
-6 K
-7 K
-8 K
-9 K
950 m²/s²
900 m²/s²
850 m²/s²
800 m²/s²
750 m²/s²
700 m²/s²
650 m²/s²
600 m²/s²
550 m²/s²
500 m²/s²
450 m²/s²
400 m²/s²
350 m²/s²
300 m²/s²
250 m²/s²
200 m²/s²
150 m²/s²
100 m²/s²
46 m/s
44 m/s
42 m/s
40 m/s
38 m/s
36 m/s
34 m/s
32 m/s
30 m/s
28 m/s
26 m/s
24 m/s
22 m/s
20 m/s
16 m/s
12 m/s
8 m/s
4 m/s
30 m/s
28 m/s
26 m/s
24 m/s
22 m/s
20 m/s
18 m/s
16 m/s
14 m/s
12 m/s
10 m/s
8 m/s
6 m/s
4 m/s
2 m/s
3.0
2.8
2.6
2.4
2.2
2.0
1.8
1.6
1.4
1.2
1.0
0.8
0.6
0.4
0.2
15
14
13
12
11
10
9
8
7
6
5
4
3
2
1
90%
80%
70%
60%
50%
40%
30%
20%
10%
42
40
38
36
34
32
30
28
26
24
22
20
18
16
14
12
90+ cm
80-90 cm
70-80 cm
60-70 cm
50-60 cm
40-50 cm
30-40 cm
20-30 cm
10-20 cm
1-10 cm
Sneeuwval
Natte sneeuw
Regen
>120 mm
115 mm
110 mm
105 mm
100 mm
95 mm
90 mm
85 mm
80 mm
75 mm
70 mm
65 mm
60 mm
55 mm
50 mm
45 mm
45 mm
40 mm
35 mm
30 mm
25 mm
20 mm
15 mm
10 mm
5 mm
0.1 mm
960 hPa
880 hPa
800 hPa
720 hPa
640 hPa
560 hPa
584 gpdm
568 gpdm
552 gpdm
536 gpdm
520 gpdm
504 gpdm
488 gpdm
Extreem zwaar Noodweer Kans op onweer
15% 15% 5% 50% 15%

Dag




Kaart






35°
30°
25°
20°
15°
10°
-5°
-10°
-15°
-20°
-25°
-30°
-35°
33> m/s
29 m/s
25 m/s
21 m/s
17 m/s
14 m/s
11 m/s
8 m/s
5 m/s
3 m/s
0 m/s